EHI
0 0 0 0 0 0 0 0 0 0 0 0 0 0 0 0 0 0 0 0 1 4 7 10 13 14 14 14 12 9 6 3 1 0 0 0 0 0 1 2 3 2 1 0 0 0 0 0 0
0 0 0 0 0 0 0 0 0 0 0 0 0 0 0 0 0 0 0 1 4 7 9 10 13 16 16 14 12 9 6 2 0 0 0 0 0 1 2 4 3 2 1 0 0 0 0 0 0
0 0 0 0 0 0 0 0 0 0 0 0 0 0 0 1 0 0 1 4 7 9 10 11 14 17 17 14 12 10 7 3 1 0 0 0 1 2 3 3 2 1 1 0 0 0 0 0 0
0 0 0 0 0 0 0 0 0 0 0 0 0 0 0 0 0 0 3 7 9 10 9 10 13 15 16 14 12 11 8 4 2 1 0 0 1 2 3 2 1 0 0 0 0 0 0 0 0
0 0 0 0 0 0 0 0 0 0 0 0 0 0 1 1 0 1 4 9 10 10 9 9 10 12 13 14 13 11 8 5 2 1 0 0 1 2 2 1 0 0 0 0 0 0 0 0 0
0 0 0 0 0 0 0 0 0 0 0 0 0 1 2 2 1 1 4 8 9 9 7 7 8 10 12 13 12 11 8 5 3 1 0 0 0 1 1 0 0 0 0 0 0 0 0 0 0
0 0 0 0 0 0 0 0 0 0 0 0 0 1 3 3 1 1 4 6 7 7 6 6 7 8 10 11 10 8 6 5 2 1 0 0 0 1 1 0 0 0 0 0 0 0 0 0 0
0 0 0 0 0 0 0 0 0 0 0 0 0 1 4 3 1 2 4 5 6 6 6 5 6 7 8 8 7 5 4 3 1 0 0 0 0 1 1 0 0 0 0 0 0 0 0 0 0
0 0 0 0 0 0 0 0 0 0 0 0 0 1 3 3 1 2 3 4 6 6 6 6 5 5 6 6 4 3 3 1 0 0 0 0 0 0 0 0 0 0 0 0 0 0 0 0 0
0 0 0 0 0 0 0 0 0 0 0 0 0 1 2 1 1 2 3 4 5 6 6 6 6 5 5 5 4 3 3 1 0 0 0 0 0 0 0 0 0 0 0 0 0 0 0 0 0
0 0 0 0 0 0 0 0 0 0 0 0 0 0 0 0 0 1 1 2 3 4 5 5 5 4 3 3 3 3 3 2 1 0 0 0 0 0 0 0 0 0 0 0 0 0 0 0 0
0 0 0 0 0 0 0 0 0 0 0 0 1 1 0 0 0 0 0 1 1 1 3 3 2 1 1 1 2 3 3 2 1 0 0 0 0 0 0 0 0 0 0 0 0 0 0 0 0
0 0 0 0 0 0 0 0 0 0 0 0 1 1 0 0 0 0 0 0 0 0 1 1 0 0 0 0 1 2 1 1 0 0 0 0 0 0 0 0 0 0 0 0 0 0 0 0 0
0 0 0 0 0 0 0 0 0 0 0 0 1 1 0 0 0 0 0 0 0 0 0 0 0 0 0 0 0 0 0 0 0 0 0 0 0 0 0 0 0 0 0 0 0 0 0 0 0
0 0 0 0 0 0 0 0 0 0 0 0 0 0 0 0 0 0 0 0 0 0 0 0 0 0 0 0 0 0 0 1 1 1 1 0 0 0 0 0 0 0 0 0 0 0 0 0 0
0 0 0 0 0 0 0 0 0 0 0 0 0 0 0 0 0 0 0 0 0 0 0 0 0 0 0 0 0 0 1 2 2 2 2 1 1 0 0 0 0 0 0 0 0 0 0 0 0
0 0 0 0 0 0 0 0 0 0 0 0 0 0 0 0 0 0 0 0 0 0 0 0 0 0 0 0 0 0 1 2 3 3 3 3 2 1 1 0 0 0 0 0 0 0 0 0 0
0 0 0 0 0 0 0 0 0 0 0 0 0 0 0 0 0 0 0 0 0 0 0 0 0 0 0 0 0 0 1 2 3 3 3 3 3 3 2 1 0 0 0 0 0 0 0 0 0
0 0 0 0 0 0 0 0 0 0 0 0 0 0 0 0 0 0 0 0 0 0 0 0 0 0 0 0 0 0 0 1 2 3 3 3 3 3 3 2 0 0 0 0 0 0 0 0 0
0 0 0 0 0 0 0 0 0 0 0 0 0 0 0 0 0 0 0 0 0 0 0 0 0 0 0 0 0 0 0 1 1 1 2 2 1 1 2 1 0 0 0 0 0 0 0 0 0
0 0 0 0 0 0 0 0 0 0 0 0 0 0 0 0 0 0 0 0 0 0 0 0 0 0 0 0 0 0 0 0 0 0 1 1 0 0 0 0 0 0 0 0 0 0 0 0 0
0 0 0 0 0 0 0 0 0 0 0 0 0 0 0 0 0 0 0 0 0 0 0 0 0 0 0 0 0 0 0 0 0 0 0 0 0 0 0 0 0 0 0 0 0 0 0 0 0
0 0 0 0 0 0 0 0 0 0 0 0 0 0 0 0 0 0 0 0 0 0 0 0 0 0 0 0 0 0 0 0 0 0 0 0 0 0 0 0 0 0 0 0 0 0 0 0 0
0 0 0 0 0 0 0 0 0 0 0 0 0 0 0 0 0 0 0 0 0 0 0 0 0 0 0 0 0 0 0 0 0 0 0 0 0 0 0 0 0 0 0 0 0 0 0 0 0
0 0 0 0 0 0 0 0 0 0 0 0 0 0 0 0 0 0 0 0 0 0 0 0 0 0 0 0 0 0 0 0 0 0 0 0 0 0 0 0 0 0 0 0 0 0 0 0 0
0 0 0 0 0 0 0 0 0 0 0 0 0 0 0 0 0 0 0 0 0 0 0 0 0 0 0 0 0 0 0 0 0 0 0 0 0 0 0 0 0 0 0 0 0 0 0 0 0
0 0 0 0 0 0 0 0 0 0 0 0 0 0 0 0 0 0 0 0 0 0 0 0 0 0 0 0 0 0 0 0 0 0 0 0 0 0 0 0 0 0 0 0 0 0 0 0 0
0 0 0 0 0 0 0 0 0 0 0 0 0 0 0 0 0 0 0 0 0 0 0 0 0 0 0 0 0 0 0 0 0 0 0 0 0 0 0 0 0 0 0 0 0 0 0 0 0
0 0 0 0 0 0 0 0 0 0 0 0 0 0 0 0 0 0 0 0 0 0 0 0 0 0 0 0 0 0 0 0 0 0 0 0 0 0 0 0 0 0 0 0 0 0 0 0 0
0 0 0 0 0 0 0 0 0 0 0 0 0 0 0 0 0 0 0 0 0 0 0 0 0 0 0 0 0 0 0 0 0 0 0 0 0 0 0 0 0 0 0 0 0 0 0 0 0
Wind_Speed
5 3 3 4 6 3 3 5 3 1 1 1 1 6 6 4 3 4 2 4 6 7 6 7 9 10 10 10 10 10 9 9 9 9 9 8 8 8 9 9 9 9 8 8 8 8 8 8 8
2 1 4 5 5 2 5 4 4 4 3 2 2 4 5 3 2 5 3 5 8 7 6 6 9 10 10 10 10 10 9 9 9 8 8 8 8 8 8 8 8 8 8 7 7 8 8 7 7
2 2 4 4 4 6 5 4 5 4 2 2 2 3 3 3 2 3 4 8 7 6 5 6 10 10 10 10 10 9 9 9 9 8 8 8 8 8 8 8 7 7 7 7 7 7 7 7 6
3 4 4 3 5 6 5 4 3 1 1 2 4 3 2 1 2 4 7 9 8 6 5 6 10 10 10 9 9 9 9 9 9 8 8 8 8 7 7 7 7 7 7 7 7 7 6 6 6
4 4 3 1 5 4 4 4 3 2 1 1 4 4 1 3 2 7 8 10 9 6 5 6 9 9 9 9 9 9 9 9 9 8 7 7 7 7 7 6 6 6 6 6 6 6 6 5 5
3 4 3 4 5 4 3 3 2 2 2 2 4 4 1 1 4 6 7 8 8 7 5 5 8 8 8 8 8 8 8 8 8 8 8 7 6 6 6 6 5 5 5 6 6 5 5 5 5
4 4 4 5 4 3 4 2 3 3 2 2 5 5 2 1 2 6 7 7 7 6 5 4 4 5 7 7 7 7 7 7 8 8 7 7 6 5 5 5 5 4 5 5 5 5 4 4 5
4 4 2 3 4 4 3 1 1 3 2 0 4 7 5 4 4 6 6 6 6 5 5 4 4 3 3 4 6 7 7 7 7 7 6 6 6 5 5 4 4 4 4 4 4 4 4 4 4
3 3 4 5 5 4 1 0 1 1 3 2 1 3 4 7 7 7 6 4 5 4 3 4 4 3 3 3 4 5 6 6 5 5 6 5 2 2 2 3 3 3 3 3 3 3 3 3 3
4 4 7 4 3 2 1 1 1 1 1 1 2 2 5 7 8 8 7 6 6 5 4 3 4 4 3 3 3 2 3 3 3 2 3 2 2 1 2 3 3 3 2 2 2 2 2 3 1
4 5 4 3 2 2 1 1 1 3 3 5 6 6 6 6 6 6 6 6 6 5 4 4 4 4 4 3 2 2 2 2 2 2 2 2 2 1 2 1 1 2 2 1 1 1 1 1 1
3 3 4 3 1 1 2 2 2 3 6 5 7 9 8 7 7 8 7 6 5 5 5 4 4 4 4 3 2 2 2 2 2 2 2 2 1 1 1 1 1 1 1 1 1 1 1 1 0
4 4 4 3 2 2 2 3 3 5 5 3 5 7 8 8 6 5 5 5 5 5 5 5 5 5 4 3 2 3 2 2 2 2 2 2 2 1 1 1 1 1 1 1 1 0 0 0 1
3 3 3 3 3 2 3 4 3 7 4 4 6 7 8 8 8 5 5 5 6 6 6 5 5 5 5 3 3 3 2 2 2 2 2 2 2 2 1 1 1 1 1 1 1 1 0 0 0
0 1 4 4 4 3 2 5 7 7 4 4 6 7 7 7 7 8 8 8 7 6 6 6 6 5 5 4 4 3 2 3 2 2 2 2 2 2 1 1 1 1 1 1 1 1 1 0 1
1 0 3 5 3 3 4 9 8 5 5 6 6 6 7 7 8 8 8 7 6 6 6 6 5 5 5 4 3 3 2 3 2 2 2 2 2 2 1 1 1 1 0 1 1 1 1 0 1
1 3 5 5 4 3 5 9 7 5 6 7 7 7 7 7 7 7 7 7 7 7 7 6 5 5 5 4 3 3 3 3 2 2 2 2 2 2 2 1 1 1 1 1 1 1 1 1 0
6 5 5 6 4 3 5 9 8 6 6 8 7 7 7 8 9 7 7 7 7 7 6 6 6 5 5 3 3 2 2 2 1 2 2 2 2 2 2 1 1 1 1 1 1 1 0 0 0
4 4 6 6 4 4 8 11 11 7 6 7 8 7 8 9 7 5 5 5 5 6 6 6 6 5 5 3 3 3 3 2 2 2 3 3 2 2 2 1 1 1 1 1 1 1 1 0 0
5 6 7 5 3 4 6 11 10 8 9 9 10 10 9 7 5 5 5 5 6 6 6 6 7 6 6 5 4 3 3 2 2 2 2 3 3 3 3 3 2 2 1 1 1 1 1 0 0
8 7 7 5 4 2 3 8 7 6 5 6 7 8 8 9 9 8 6 6 6 6 7 6 7 7 6 5 3 3 2 2 1 1 1 2 2 2 2 3 3 2 2 2 2 2 2 1 1
8 7 6 4 2 4 2 6 8 5 6 7 8 7 8 8 8 7 7 7 7 7 6 6 6 6 6 6 5 5 4 3 3 2 2 2 2 2 2 2 3 2 2 2 2 2 2 2 1
6 4 3 3 3 3 3 4 10 3 6 9 9 9 9 8 8 8 8 8 6 5 5 5 5 5 5 6 6 6 4 3 2 2 2 2 1 2 2 3 3 2 2 2 2 2 2 2 2
3 2 2 1 2 5 7 7 9 6 9 7 7 8 8 7 7 7 6 5 4 4 4 4 5 4 4 5 5 6 6 4 4 3 3 2 1 2 2 2 2 2 2 2 3 2 3 2 2
3 4 1 2 2 7 4 6 11 8 8 8 8 7 7 6 7 6 6 6 5 5 5 5 5 5 5 5 5 6 6 6 6 5 4 3 2 2 3 3 3 3 3 3 3 2 3 3 3
5 7 7 6 6 5 2 8 9 6 5 4 5 5 5 5 6 6 7 6 6 6 6 5 6 5 5 5 5 5 5 4 4 4 4 4 3 3 3 3 3 3 3 3 2 2 2 2 3
5 5 5 4 2 3 6 7 8 2 1 1 2 3 4 6 6 6 5 5 6 6 6 6 6 5 5 5 4 4 4 4 4 4 3 3 3 2 3 3 3 3 3 3 3 3 3 2 3
4 5 3 4 4 5 6 5 6 4 4 2 2 3 4 4 4 4 5 5 5 5 4 5 5 5 4 4 4 4 4 4 4 3 4 4 4 3 4 3 3 3 3 3 3 3 3 3 3
4 3 3 3 4 5 4 7 5 6 5 4 4 3 4 4 4 4 3 3 4 3 4 4 4 4 4 4 4 3 3 3 3 3 4 4 4 4 4 4 4 4 3 3 3 3 3 4 3
5 6 6 5 5 4 4 8 3 2 3 3 3 3 4 4 4 4 3 3 3 4 4 4 4 4 4 4 4 4 3 3 3 3 4 4 4 4 4 4 4 4 4 4 4 4 4 4 5
Wind_Direction
322 359 69 61 61 61 230 246 239 272 279 284 97 102 108 107 127 152 170 139 132 141 149 150 145 137 135 132 129 126 124 120 118 116 114 112 110 106 105 100 97 92 88 87 86 85 83 81 81
346 35 60 65 102 170 251 242 235 233 202 155 72 86 87 84 90 117 133 141 137 139 142 145 143 136 133 133 132 129 127 124 123 119 116 115 114 110 109 103 97 92 87 86 87 87 83 81 79
345 75 88 89 144 189 213 225 222 236 204 143 84 62 97 125 135 151 160 142 131 132 134 145 141 139 135 134 133 133 131 127 126 123 120 117 114 110 109 106 100 93 89 87 87 88 85 82 78
69 58 64 99 208 221 207 220 210 211 13 79 110 76 65 47 170 155 141 132 126 126 127 143 141 141 140 137 135 136 133 131 130 126 121 119 116 110 104 102 100 96 92 93 90 88 86 81 78
68 88 96 209 230 237 233 232 210 199 189 121 113 113 78 333 106 123 134 133 134 131 129 138 135 138 140 140 136 134 136 134 133 129 126 121 116 110 106 100 102 101 97 96 93 91 87 80 74
70 84 130 211 229 243 254 239 192 210 195 129 116 121 171 306 116 129 132 132 133 133 133 137 139 135 133 133 134 134 132 133 132 129 127 121 116 112 109 107 106 105 105 102 97 95 90 79 73
121 126 183 200 205 239 246 229 175 178 172 186 142 126 165 253 138 127 128 128 127 129 130 131 138 138 136 132 128 126 128 130 130 129 126 118 114 112 112 108 107 112 112 105 99 96 91 80 74
139 128 195 208 196 231 244 202 169 174 187 142 123 141 185 202 149 118 115 119 121 125 131 131 126 126 131 139 134 128 121 123 123 121 116 110 104 102 104 102 107 116 120 113 103 99 87 75 67
107 108 208 208 193 220 225 122 322 22 96 51 68 162 174 146 129 117 114 114 126 129 128 131 127 122 122 131 133 131 126 117 114 113 104 93 77 73 81 90 93 111 118 115 113 102 84 65 55
117 185 220 218 197 195 206 187 232 60 63 61 42 61 113 133 136 139 146 154 155 157 153 143 141 137 127 123 111 105 107 104 96 94 108 102 93 77 70 75 83 81 89 95 100 78 66 55 32
164 198 217 250 239 197 223 260 264 155 218 200 180 164 148 146 149 158 164 168 167 166 164 158 154 145 135 128 125 116 109 105 103 103 103 108 102 82 60 57 54 48 51 47 36 37 35 48 46
185 229 213 235 255 215 225 222 251 214 218 206 177 161 159 167 176 177 175 171 164 165 175 171 162 151 147 140 139 138 132 131 129 128 114 111 110 109 102 89 85 72 61 69 55 45 31 35 42
220 246 248 246 262 243 247 236 225 245 232 181 159 159 173 179 189 189 174 168 167 175 179 181 166 160 157 148 153 145 149 149 144 134 130 126 131 139 140 162 128 120 119 125 120 104 41 5 308
218 234 270 267 255 247 225 256 223 245 211 169 172 184 189 189 188 183 176 180 183 183 182 180 172 167 159 159 161 159 159 150 137 135 139 137 139 150 148 145 144 176 169 157 161 155 153 257 299
236 299 304 265 228 229 187 270 234 229 187 195 198 199 199 203 195 194 191 189 188 183 179 178 177 169 164 165 167 161 161 145 140 144 143 138 137 146 150 153 179 213 191 141 134 121 121 84 356
29 229 258 262 206 197 168 251 251 220 185 215 216 211 210 212 206 205 196 191 187 176 175 181 176 166 167 166 163 160 161 151 150 148 148 153 145 138 140 150 209 220 161 146 151 151 129 78 335
219 226 232 263 219 183 196 246 256 222 195 216 222 217 215 215 216 212 202 195 189 183 176 178 175 170 171 165 158 156 158 157 161 152 154 167 158 142 141 166 196 148 140 162 171 156 157 167 316
211 217 229 234 236 191 224 250 259 241 220 221 224 224 219 215 217 208 201 196 188 184 178 177 173 172 167 152 140 140 147 158 158 161 170 169 168 158 147 162 169 147 143 158 156 157 132 153 209
195 213 237 244 245 221 239 256 261 248 236 231 229 223 217 219 216 198 191 184 176 179 178 179 176 173 160 155 159 163 176 174 178 187 178 179 178 173 158 165 175 168 170 179 171 159 130 327 76
229 241 259 274 274 236 253 265 263 242 228 222 219 216 211 210 209 203 189 182 181 181 182 181 181 176 173 174 176 170 161 171 185 188 181 184 182 180 175 173 183 186 172 163 168 142 150 280 85
232 226 242 258 306 309 298 289 265 258 236 233 223 212 207 202 203 200 192 187 183 185 186 186 183 177 175 167 149 126 101 90 120 193 195 193 183 182 179 181 178 182 180 194 200 180 172 193 266
238 228 226 238 247 267 198 275 271 250 248 235 229 216 212 211 202 195 190 188 189 192 186 182 177 173 171 163 162 162 167 179 196 192 196 196 188 186 183 180 181 186 187 196 206 199 197 173 208
222 210 206 218 210 264 231 240 273 252 247 240 230 220 214 210 197 194 192 192 189 181 177 178 170 168 170 170 171 171 177 185 177 168 176 191 196 191 188 183 182 187 199 206 202 198 200 196 195
173 96 50 55 117 250 222 207 268 229 224 231 226 216 212 203 193 190 187 180 180 171 168 167 167 174 175 174 176 177 178 176 170 181 188 197 205 205 199 192 192 195 200 206 206 201 201 206 202
141 124 44 324 247 245 209 208 248 242 229 219 218 215 210 196 184 181 177 177 178 175 176 172 171 177 179 176 180 184 184 181 186 190 193 194 198 210 210 200 200 206 210 208 200 197 210 205 202
194 170 179 204 221 268 246 231 251 259 245 223 211 201 192 187 184 181 182 181 181 180 178 176 177 181 182 181 185 185 184 184 192 194 193 200 204 207 202 199 204 210 211 209 199 203 215 208 213
172 205 197 164 207 252 253 269 294 279 260 203 187 175 189 190 188 184 180 180 179 180 183 183 181 183 187 185 180 180 184 189 196 196 195 202 202 198 193 197 205 213 209 205 199 209 215 208 217
171 162 141 165 191 242 266 251 240 242 233 222 206 207 205 188 184 185 182 182 182 180 179 179 180 184 187 181 182 183 189 194 194 189 199 205 203 198 193 197 201 208 212 207 204 214 215 209 223
170 176 184 182 188 187 249 262 227 211 205 201 212 211 198 193 194 191 187 182 173 166 169 178 183 180 183 186 184 180 188 189 187 197 207 207 203 199 200 203 202 204 211 212 211 219 215 216 227
201 200 179 187 225 201 216 264 270 219 225 193 209 214 209 200 192 182 175 171 172 175 178 183 186 186 190 186 180 183 185 184 190 209 216 205 203 205 203 203 205 208 212 212 215 222 222 221 226